Location: Proctor
(47.8934°N, 114.3048°W)
Time: 13:15:23
(UTC+00:00)

AO-91 - Pass Details

Date: 03 July 2022
Orbit: 450 x 797 km, 97.7° (Epoch: 12 August)

Event Time Altitude Azimuth Distance (km) Brightness Sun altitude
Rises 06:21:27 0° 15° (NNE) 2,517 ? -16.9°
Reaches altitude 10° 06:23:33 10° 19° (NNE) 1,613 ? -17.0°
Maximum altitude 06:26:57 65° 101° (ESE) 501 ? -17.2°
Enters shadow 06:27:42 47° 161° (SSE) 604 ? -17.2°
